Weather History for Dixon AP, Dixon, WY, WY

Change the Weather History Date:

Wednesday, July 23, 2014

  Actual Average (KCAG) Record (KCAG)
Temperature  
Mean Temperature 72 °F 68 °F  
Max Temperature 96 °F 89 °F 98 °F (2006)
Min Temperature 50 °F 47 °F 39 °F (2001)
Degree Days  
Heating Degree Days 0 0  
Month to date heating degree days 20  
Since 1 June heating degree days 195  
Since 1 July heating degree days 20  
Cooling Degree Days 8 3  
Month to date cooling degree days 52  
Year to date cooling degree days 62  
Since 1 June cooling degree days 62  
Growing Degree Days 22 (Base 50)    
Moisture  
Dew Point 32 °F    
Average Humidity 22    
Maximum Humidity 55    
Minimum Humidity 9    
Precipitation  
Precipitation 0.00 in 0.04 in 0.11 in (2012)
Month to date precipitation 0.78  
Year to date precipitation 8.29  
Sea Level Pressure  
Sea Level Pressure 30.35 in    
Wind  
Wind Speed 8 mph (South)    
Max Wind Speed 22 mph    
Max Gust Speed 38 mph    
Visibility 10 miles    
Events      
T = Trace of Precipitation, MM = Missing Value Source: NWS Daily Summary

Daily Weather History Graph

Daily Weather History Graph

Search for Another Location

Airport:

Trip Planner

Search our weather history database for the weather conditions in past years. The results will help you decide how hot, cold, wet, or windy it might be!

Date:

Astronomy

Jul. 23, 2014 Rise Set
Actual Time 5:57 AM MDT 8:34 PM MDT
Civil Twilight 5:25 AM MDT 9:06 PM MDT
Nautical Twilight 4:45 AM MDT 9:46 PM MDT
Astronomical Twilight 4:00 AM MDT 10:30 PM MDT
Moon 3:18 AM MDT (7/23) 6:05 PM MDT (7/23)
Length of Visible Light 15h 40m
Length of Day
14h 37m
Waning Crescent, 9% of the Moon is Illuminated
Jul 23
Waning Crescent
Jul 26
New
Aug 3
First Quarter
Aug 10
Full
Aug 17
Last Quarter

Hourly Weather History & Observations

Time (MDT) Temp. Dew Point Humidity Pressure Visibility Wind Dir Wind Speed Gust Speed Precip Events Conditions
12:15 AM 65.8 °F 27.5 °F 24% 30.38 in 10.0 mi East 8.1 mph - N/A   Clear
12:35 AM 66.9 °F 27.9 °F 23% 30.38 in 10.0 mi East 12.7 mph 19.6 mph N/A   Clear
12:55 AM 65.5 °F 27.1 °F 24% 30.38 in 10.0 mi East 8.1 mph - N/A   Clear
1:15 AM 65.7 °F 26.6 °F 23% 30.37 in 10.0 mi East 10.4 mph - N/A   Clear
1:35 AM 64.9 °F 27.1 °F 24% 30.38 in 10.0 mi East 12.7 mph - N/A   Clear
1:55 AM 63.7 °F 27.7 °F 26% 30.38 in 10.0 mi East 10.4 mph - N/A   Clear
2:15 AM 63.3 °F 27.5 °F 26% 30.38 in 10.0 mi ENE 5.8 mph - N/A   Clear
2:35 AM 63.7 °F 27.3 °F 25% 30.37 in 10.0 mi ENE 9.2 mph - N/A   Clear
2:55 AM 58.1 °F 27.3 °F 31% 30.37 in 10.0 mi NE 5.8 mph - N/A   Clear
3:15 AM 59.5 °F 26.8 °F 29% 30.36 in 10.0 mi ENE 3.5 mph - N/A   Clear
3:35 AM 55.8 °F 28.2 °F 35% 30.36 in 10.0 mi SE 3.5 mph - N/A   Clear
3:55 AM 58.5 °F 28.8 °F 32% 30.37 in 10.0 mi Calm Calm - N/A   Clear
4:15 AM 55.8 °F 29.8 °F 37% 30.37 in 10.0 mi Calm Calm - N/A   Clear
4:35 AM 55.8 °F 29.7 °F 37% 30.38 in 10.0 mi Calm Calm - N/A   Clear
4:55 AM 56.1 °F 30.7 °F 38% 30.38 in 10.0 mi East 6.9 mph - N/A   Clear
5:15 AM 54.7 °F 31.5 °F 41% 30.38 in 10.0 mi East 4.6 mph - N/A   Clear
5:35 AM 53.6 °F 32.5 °F 45% 30.38 in 10.0 mi SE 4.6 mph - N/A   Clear
5:55 AM 51.8 °F 33.8 °F 50% 30.39 in 10.0 mi SE 5.8 mph - N/A   Clear
6:15 AM 50.0 °F 34.0 °F 54% 30.40 in 10.0 mi East 3.5 mph - N/A   Clear
6:35 AM 50.5 °F 35.1 °F 55% 30.40 in 10.0 mi Calm Calm - N/A   Clear
6:55 AM 52.5 °F 35.2 °F 52% 30.40 in 10.0 mi Calm Calm - N/A   Clear
7:15 AM 58.6 °F 35.2 °F 42% 30.41 in 10.0 mi SE 6.9 mph - N/A   Clear
7:35 AM 62.1 °F 39.0 °F 43% 30.41 in 10.0 mi SSE 5.8 mph - N/A   Clear
7:55 AM 65.5 °F 39.7 °F 39% 30.41 in 10.0 mi SSE 3.5 mph - N/A   Clear
8:15 AM 69.4 °F 40.6 °F 35% 30.41 in 10.0 mi SSE 4.6 mph - N/A   Clear
8:35 AM 74.7 °F 40.8 °F 30% 30.42 in 10.0 mi East 3.5 mph - N/A   Clear
8:55 AM 81.0 °F 37.2 °F 21% 30.42 in 10.0 mi East 4.6 mph - N/A   Clear
9:15 AM 82.4 °F 36.7 °F 19% 30.41 in 10.0 mi ESE 3.5 mph - N/A   Clear
9:35 AM 84.4 °F 37.4 °F 19% 30.41 in 10.0 mi SSW 4.6 mph - N/A   Clear
9:55 AM 86.4 °F 33.1 °F 15% 30.41 in 10.0 mi South 12.7 mph 17.3 mph N/A   Clear
10:15 AM 87.1 °F 32.9 °F 14% 30.40 in 10.0 mi SSW 10.4 mph 18.4 mph N/A   Clear
10:35 AM 88.3 °F 32.7 °F 14% 30.40 in 10.0 mi SW 9.2 mph 18.4 mph N/A   Clear
10:55 AM 89.4 °F 34.0 °F 14% 30.40 in 10.0 mi SSW 12.7 mph 16.1 mph N/A   Clear
11:15 AM 89.6 °F 33.3 °F 13% 30.40 in 10.0 mi SSW 9.2 mph 21.9 mph N/A   Clear
11:35 AM 90.5 °F 32.7 °F 13% 30.39 in 10.0 mi SSW 9.2 mph 16.1 mph N/A   Clear
11:55 AM 91.6 °F 33.1 °F 13% 30.39 in 10.0 mi SSW 11.5 mph 19.6 mph N/A   Clear
12:15 PM 91.9 °F 33.6 °F 13% 30.38 in 10.0 mi South 9.2 mph - N/A   Clear
12:35 PM 90.7 °F 33.4 °F 13% 30.38 in 10.0 mi SSW 13.8 mph 18.4 mph N/A   Clear
12:55 PM 90.3 °F 31.3 °F 12% 30.37 in 10.0 mi SSW 11.5 mph 18.4 mph N/A   Clear
1:15 PM 93.7 °F 32.2 °F 11% 30.36 in 10.0 mi SW 15.0 mph 23.0 mph N/A   Clear
1:35 PM 94.5 °F 32.5 °F 11% 30.36 in 10.0 mi South 15.0 mph 20.7 mph N/A   Clear
1:55 PM 93.6 °F 31.3 °F 11% 30.35 in 10.0 mi SSW 9.2 mph 16.1 mph N/A   Clear
2:15 PM 94.3 °F 27.1 °F 9% 30.34 in 10.0 mi South 12.7 mph 21.9 mph N/A   Clear
2:35 PM 95.2 °F 27.9 °F 9% 30.34 in 10.0 mi SSW 6.9 mph 16.1 mph N/A   Clear
2:55 PM 94.6 °F 28.8 °F 10% 30.33 in 10.0 mi WNW 8.1 mph 20.7 mph N/A   Clear
3:15 PM 93.6 °F 29.1 °F 10% 30.32 in 10.0 mi West 6.9 mph - N/A   Clear
3:35 PM 94.8 °F 28.6 °F 9% 30.31 in 10.0 mi Calm Calm - N/A   Clear
3:55 PM 93.7 °F 28.6 °F 10% 30.30 in 10.0 mi SSW 8.1 mph - N/A   Clear
4:15 PM 95.5 °F 29.3 °F 10% 30.29 in 10.0 mi West 9.2 mph - N/A   Clear
4:35 PM 95.2 °F 28.8 °F 9% 30.28 in 10.0 mi West 3.5 mph - N/A   Clear
4:55 PM 95.0 °F 29.5 °F 10% 30.27 in 10.0 mi West 11.5 mph 18.4 mph N/A   Clear
5:15 PM 94.8 °F 28.6 °F 9% 30.27 in 10.0 mi West 8.1 mph - N/A   Clear
5:35 PM 94.3 °F 27.3 °F 9% 30.27 in 10.0 mi SW 10.4 mph 16.1 mph N/A   Clear
5:55 PM 92.5 °F 29.1 °F 10% 30.26 in 10.0 mi WSW 9.2 mph - N/A   Clear
6:15 PM 91.4 °F 30.0 °F 11% 30.25 in 10.0 mi SW 10.4 mph - N/A   Clear
6:35 PM 90.0 °F 28.9 °F 11% 30.27 in 10.0 mi WSW 17.3 mph 38.0 mph N/A   Scattered Clouds
6:55 PM 88.9 °F 28.6 °F 11% 30.25 in 10.0 mi SSW 6.9 mph 31.1 mph N/A   Scattered Clouds
7:35 PM 87.4 °F 30.6 °F 13% 30.25 in 10.0 mi SSW 6.9 mph - N/A   Clear
8:15 PM 86.7 °F 29.8 °F 13% 30.25 in 10.0 mi WSW 8.1 mph 16.1 mph N/A   Scattered Clouds
8:35 PM 82.2 °F 32.4 °F 17% 30.26 in 10.0 mi SSE 8.1 mph - N/A   Scattered Clouds
8:55 PM 86.2 °F 29.5 °F 13% 30.26 in 10.0 mi South 15.0 mph 19.6 mph N/A   Scattered Clouds
9:15 PM 84.6 °F 34.2 °F 16% 30.27 in 10.0 mi SE 16.1 mph 21.9 mph N/A   Scattered Clouds
9:35 PM 81.9 °F 38.8 °F 22% 30.27 in 10.0 mi East 10.4 mph 18.4 mph N/A   Scattered Clouds
9:55 PM 81.5 °F 36.9 °F 20% 30.27 in 10.0 mi ESE 11.5 mph 17.3 mph N/A   Clear
10:15 PM 81.3 °F 38.1 °F 21% 30.28 in 10.0 mi East 16.1 mph 24.2 mph N/A   Clear
10:35 PM 81.1 °F 37.4 °F 21% 30.29 in 10.0 mi Calm Calm - N/A   Scattered Clouds
10:55 PM 80.1 °F 37.9 °F 22% 30.30 in 10.0 mi SSW 4.6 mph - N/A   Scattered Clouds
11:15 PM 81.0 °F 36.5 °F 20% 30.30 in 10.0 mi South 21.9 mph 29.9 mph N/A   Mostly Cloudy
11:35 PM 79.2 °F 38.3 °F 23% 30.31 in 10.0 mi South 20.7 mph 26.5 mph N/A   Mostly Cloudy
11:55 PM 78.6 °F 38.3 °F 23% 30.30 in 10.0 mi South 11.5 mph 20.7 mph N/A   Scattered Clouds